Дашогуз

Туркменистан     41°49′42″N   59°57′57″E
В апреле 2022 года жителям России запретили посещать сайт meteo.paraplan.net по решению Генеральной прокуратуры. Аудитория сайта уменьшилась в 10 раз. Владельцы сайта не видят смысла в поддержке погодного сервера в таких условиях. Сайт будет закрыт в октябре.
темп.,
°C
ветер,
м/с
пор.,
м/с
влажн.,
%
обл.,
%
осадки,
мм/ч
давл.,
гПа
погр.,
м
4 октября, вт
вт423:00+12св49250 0.0 1020143
02:00+11всв45270 0.0 101955
05:00+10св44313 0.0 102043
08:00+10св48335 0.0 1022206
11:00+18всв67195 0.0 1023708
14:00+22всв67125 0.0 10221168
17:00+23всв67110 0.0 10221320
20:00+17св511170 0.0 1023174
5 октября, ср
ср523:00+15всв514170 0.0 1024285
02:00+12всв513150 0.0 1025226
05:00+11всв511200 0.0 1025178
08:00+11всв411260 0.0 1027257
11:00+19всв79150 0.0 1027748
14:00+23всв7890 0.0 10251151
17:00+24всв8980 0.0 10251279
20:00+17всв511120 0.0 1025169
6 октября, чт
чт623:00+14всв513140 0.0 1025237
02:00+12в512210 0.0 1025202
05:00+11всв49275 0.0 1025130
08:00+11в37285 0.0 1026146
11:00+19в45175 0.0 1025535
14:00+24всв33125 0.0 10231067
17:00+24св4595 0.0 10211063
20:00+17св44111 0.0 102224
7 октября, пт
пт723:00+16всв331373 0.0 102218
02:00+14в2215100 0.0 102111
05:00+13в22185 0.0 102111
08:00+14вюв112345 0.0 102111
11:00+22зюз11136 0.0 1021481
14:00+26зюз331055 0.0 10191207
17:00+26з44792 0.0 10191255
20:00+19зсз3410100 0.0 102022
8 октября, сб
сб823:00+17ссз3412100 0.0 102030
02:00+16с331416 0.0 102015
05:00+14с45190 0.0 102163
08:00+14ссв47260 0.0 1023137
11:00+21ссв44210 0.0 1024685
14:00+24с44160 0.0 10231326
17:00+23ссв54190 0.0 10221415
20:00+18ссв58310 0.0 1023142